User: anonymous   Login
Location: Rometta
(44.2000°N, 10.0500°E)
Time: 06:49:09
(UTC+00:00)
Language:

Cosmos 1939 Rocket - Orbit

View from above orbital plane
View from above orbital plane
View from above satellite
View from above satellite

Ground track
Ground track

The orbit data is extracted from the following two-line orbital elements,

1 19046U 88032B   21108.55113874 -.00000131  00000-0 -52184-5 0  9999
2 19046  97.3914 121.8389 0034763 245.5852 114.1746 15.02907890782788
Epoch (UTC): 18 April 2021 13:13:38
Eccentricity: 0.0034763
inclination: 97.3914°
perigee height: 534 km
apogee height: 582 km
right ascension of ascending node: 121.8389°
argument of perigee: 245.5852°
revolutions per day: 15.02907890
mean anomaly at epoch: 114.1746°
orbit number at epoch: 78278

The dashed part of the orbit path shows where the satellite is in the earth's shadow,  

DLR